Location: Unspecified
(0.0000°N, 0.0000°E)
Time: 16:03:12

Vanguard 1 Rocket - Pass Details

Date: 14 December 2017
Orbit: 655 x 4222 km, 34.3° (Epoch: 20 March)

Event Time Altitude Azimuth Distance (km) Brightness Sun altitude
Rises 01:19:18 0° 303° (WNW) 8,170 - -59.0°
Reaches altitude 10° 01:24:42 10° 302° (WNW) 7,319 - -58.1°
Maximum altitude 01:51:13 75° 220° (SW) 3,872 - -53.4°
Exits shadow 01:52:15 74° 202° (SSW) 3,831 10.2 -53.2°
Drops below altitude 10° 02:09:22 10° 135° (SE) 5,319 11.8 -49.9°
Sets 02:12:36 0° 133° (SE) 5,957 12.2 -49.2°
